Location: Newark
(38.4667°N, 106.2667°E)
Time: 04:43:16
(UTC+00:00)

ISS - Visible Passes

Search period start: 05 April 2020 00:00
Search period end: 15 April 2020 00:00
Orbit: 418 x 423 km, 51.6° (Epoch: 05 April)

Date Brightness Start Highest point End Pass type
(mag) Time Alt. Az. Time Alt. Az. Time Alt. Az.
05 Apr -3.2 12:54:21 10° WNW 12:57:38 51° SW 12:58:15 43° S visible
06 Apr -3.8 12:07:09 10° NW 12:10:32 87° NE 12:13:20 14° SE visible
07 Apr -1.2 12:57:46 10° W 12:59:53 16° SW 13:01:30 12° SSW visible
08 Apr -1.9 12:09:57 10° WNW 12:12:52 27° SW 12:15:45 10° SSE visible
